Location: Invercargill
(46.4000°S, 168.3500°E)
Time: 14:12:02
(UTC+13:00)

Meteor 2-13 Rocket - Pass Details

Date: 24 January 2019
Orbit: 935 x 958 km, 82.5° (Epoch: 16 February)

Event Time Altitude Azimuth Distance (km) Brightness Sun altitude
Rises 22:28:50 0° 2° (N) 3,588 7.1 -9.1°
Reaches altitude 10° 22:31:18 10° 5° (N) 2,653 6.4 -9.4°
Maximum altitude 22:37:18 67° 85° (E) 1,028 4.5 -10.2°
Drops below altitude 10° 22:43:25 10° 166° (SSE) 2,697 7.2 -11.0°
Sets 22:45:57 0° 168° (SSE) 3,652 8.0 -11.3°
